This is the latest recevied weather packets stored in our database for station/object KD0RII. If no packets are shown the sender has not sent any weather packets the latest 10 day(s).
| Time | Temp. | Humidity | Pressure | Rain* | Wind** | Luminosity | Snow |
|---|---|---|---|---|---|---|---|
| 1777576026 | 20.56° C | 46% | 1018.7 hPa | 0 mm | - | 365 W/m² | - |
| 1777575722 | 21.11° C | 47% | 1019 hPa | 0 mm | - | 333 W/m² | - |
| 1777575419 | 21.11° C | 44% | 1018.9 hPa | 0 mm | - | 439 W/m² | - |
| 1777575115 | 21.11° C | 44% | 1018.9 hPa | 0 mm | - | 686 W/m² | - |
| 1777574810 | 20.56° C | 48% | 1018.7 hPa | 0 mm | - | 644 W/m² | - |
| 1777574508 | 20.56° C | 48% | 1018.8 hPa | 0 mm | - | 525 W/m² | - |
| 1777574204 | 20° C | 47% | 1019 hPa | 0 mm | - | 493 W/m² | - |
| 1777573899 | 20° C | 49% | 1019.1 hPa | 0 mm | - | 505 W/m² | - |
| 1777573599 | 20° C | 47% | 1019 hPa | 0 mm | - | 590 W/m² | - |
| 1777573296 | 20° C | 45% | 1019 hPa | 0 mm | - | 518 W/m² | - |
| 1777572992 | 20° C | 45% | 1019.2 hPa | 0 mm | - | 467 W/m² | - |
| 1777572688 | 20° C | 45% | 1019.2 hPa | 0 mm | - | 580 W/m² | - |
| 1777572387 | 20° C | 43% | 1019.4 hPa | 0 mm | - | 448 W/m² | - |
| 1777572085 | 20.56° C | 46% | 1019.3 hPa | 0 mm | - | 442 W/m² | - |
| 1777571785 | 20.56° C | 44% | 1019.5 hPa | 0 mm | - | 458 W/m² | - |
| 1777571482 | 21.67° C | 41% | 1019.7 hPa | 0 mm | - | 509 W/m² | - |
| 1777571179 | 21.67° C | 41% | 1019.6 hPa | 0 mm | - | 773 W/m² | - |
| 1777570874 | 21.67° C | 43% | 1019.6 hPa | 0 mm | - | 855 W/m² | - |
| 1777570570 | 21.67° C | 44% | 1019.7 hPa | 0 mm | - | 679 W/m² | - |
| 1777570268 | 20.56° C | 49% | 1019.9 hPa | 0 mm | - | 824 W/m² | - |
| 1777569962 | 20° C | 42% | 1019.8 hPa | 0 mm | - | 715 W/m² | - |
| 1777569659 | 20° C | 46% | 1019.9 hPa | 0 mm | - | 679 W/m² | - |
| 1777569354 | 19.44° C | 47% | 1020 hPa | 0 mm | - | 482 W/m² | - |
| 1777569051 | 19.44° C | 49% | 1019.9 hPa | 0 mm | - | 497 W/m² | - |
| 1777568748 | 19.44° C | 46% | 1020.3 hPa | 0 mm | - | 502 W/m² | - |
* Rain latest hour (hover to see other rain measurements)
** Current wind speed in m/s (hover to see current wind gust speed)